George, South Africa

4:47 PM SAST on October 20, 2017 (GMT +0200)
George

Weather History for FAGG - October, 2011

Change the Weather History Date:

Tuesday, October 25, 2011

  Actual Average Record
Temperature  
Mean Temperature 60 °F -  
Max Temperature 68 °F 69 °F 83 °F (2012)
Min Temperature 52 °F 52 °F 46 °F (2000)
Degree Days  
Heating Degree Days 5    
Growing Degree Days 10 (Base 50)    
Moisture  
Dew Point 48 °F    
Average Humidity 66    
Maximum Humidity 88    
Minimum Humidity 34    
Precipitation  
Precipitation 0.00 in - - ()
Sea Level Pressure  
Sea Level Pressure 29.89 in    
Wind  
Wind Speed 9 mph ()    
Max Wind Speed 17 mph    
Max Gust Speed -    
Visibility 7.8 miles    
Events      
Averages and records for this station are not official NWS values.
T = Trace of Precipitation, MM = Missing Value Source: Averaged Metar Reports

Daily Weather History Graph

Daily Weather History Graph

Search for Another Location

Airport or City:

Trip Planner

Search our weather history database for the weather conditions in past years. The results will help you decide how hot, cold, wet, or windy it might be!

Date:

Astronomy

Oct. 25, 2011 Rise Set
Actual Time 5:37 AM SAST 6:52 PM SAST
Civil Twilight 5:11 AM SAST 7:18 PM SAST
Nautical Twilight 4:40 AM SAST 7:49 PM SAST
Astronomical Twilight 4:08 AM SAST 8:21 PM SAST
Moon 4:16 AM SAST (10/25) 5:29 PM SAST (10/25)
Length of Visible Light 14h 06m
Length of Day
13h 14m
Waning Crescent, 3% of the Moon is Illuminated
Oct 25
Waning Crescent
Oct 26
New
Nov 2
First Quarter
Nov 10
Full
Nov 18
Last Quarter

Hourly Weather History & Observations

Time (SAST) Temp. Dew Point Humidity Pressure Visibility Wind Dir Wind Speed Gust Speed Precip Events Conditions
12:00 AM 55.4 °F 48.2 °F 77% 29.95 in 6.2 mi WNW 8.1 mph - N/A   Partly Cloudy
1:00 AM 53.6 °F 48.2 °F 82% 29.92 in - WNW 5.8 mph - N/A   Clear
2:00 AM 52 °F 47 °F 79% 29.92 in 12 mi NW 5.8 mph - -  
2:00 AM 51.8 °F 46.4 °F 82% 29.89 in - NW 5.8 mph - N/A   Clear
3:00 AM 55.4 °F 48.2 °F 77% 29.89 in 6.2 mi West 10.4 mph - N/A   Scattered Clouds
4:00 AM 55.4 °F 48.2 °F 77% 29.89 in 6.2 mi WNW 10.4 mph - N/A   Scattered Clouds
5:00 AM 56 °F 48 °F 66% 29.89 in 19 mi WNW 12.7 mph - -   Partly Cloudy
5:00 AM 55.4 °F 48.2 °F 77% 29.89 in 6.2 mi WNW 12.7 mph - N/A   Scattered Clouds
6:00 AM 55.4 °F 46.4 °F 72% 29.89 in 6.2 mi WNW 10.4 mph - N/A   Partly Cloudy
7:00 AM 57.2 °F 46.4 °F 67% 29.89 in 6.2 mi WNW 13.8 mph - N/A   Partly Cloudy
7:45 AM 60.8 °F 46.4 °F 59% 29.89 in 6.2 mi West 17.3 mph - N/A   Partly Cloudy
8:00 AM 61 °F 46 °F 48% 29.91 in 19 mi West 17.3 mph - -   Scattered Clouds
8:00 AM 60.8 °F 46.4 °F 59% 29.89 in 6.2 mi West 17.3 mph - N/A   Partly Cloudy
8:51 AM 64.4 °F 44.6 °F 49% 29.89 in 6.2 mi West 15.0 mph - N/A   Partly Cloudy
9:00 AM 64.4 °F 44.6 °F 49% 29.89 in 6.2 mi West 15.0 mph - N/A   Partly Cloudy
10:00 AM 66.2 °F 41.0 °F 40% 29.89 in 6.2 mi WSW 15.0 mph - N/A   Scattered Clouds
11:00 AM 66 °F 44 °F 34% 29.88 in 25 mi SW 11.5 mph - -   Partly Cloudy
11:00 AM 66.2 °F 42.8 °F 43% 29.89 in 6.2 mi SW 12.7 mph - N/A   Scattered Clouds
12:00 PM 66.2 °F 51.8 °F 60% 29.89 in 6.2 mi SSW 16.1 mph - N/A   Scattered Clouds
1:00 PM 64.4 °F 51.8 °F 64% 29.86 in 6.2 mi South 16.1 mph - N/A   Scattered Clouds
2:00 PM 64 °F 49 °F 49% 29.87 in 12 mi SSW 15.0 mph - -   Partly Cloudy
2:00 PM 64.4 °F 50.0 °F 59% 29.86 in 6.2 mi SSW 15.0 mph - N/A   Scattered Clouds
3:00 PM 62.6 °F 50.0 °F 63% 29.86 in 6.2 mi SSW 11.5 mph - N/A   Mostly Cloudy
4:00 PM 62.6 °F 53.6 °F 72% 29.86 in 6.2 mi SSW 9.2 mph - N/A   Mostly Cloudy
5:00 PM 61 °F 51 °F 62% 29.88 in 12 mi SW 10.4 mph - -   Mostly Cloudy
5:00 PM 60.8 °F 51.8 °F 72% 29.86 in 6.2 mi SW 10.4 mph - N/A   Mostly Cloudy
6:00 PM 60.8 °F 51.8 °F 72% 29.89 in 6.2 mi South 8.1 mph - N/A   Scattered Clouds
7:00 PM 59.0 °F 50.0 °F 72% 29.89 in 6.2 mi Variable 2.3 mph - N/A   Partly Cloudy
8:00 PM 57 °F 50 °F 72% 29.90 in 12 mi NW 3.5 mph - -   Scattered Clouds
8:00 PM 57.2 °F 50.0 °F 77% 29.89 in 6.2 mi NNW 3.5 mph - N/A   Partly Cloudy
9:00 PM 55.4 °F 51.8 °F 88% 29.92 in 6.2 mi WNW 4.6 mph - N/A   Mostly Cloudy
10:00 PM 55.4 °F 51.8 °F 88% 29.92 in 6.2 mi NNW 3.5 mph - N/A   Mostly Cloudy
11:00 PM 55.4 °F 50.0 °F 82% 29.89 in 6.2 mi NW 4.6 mph - N/A   Mostly Cloudy